Year,Month,Day,Hour,Minute,Value (Times are PST for temperature in C)
2015,06,22,00,00,19.20
2015,06,22,00,01,19.20
2015,06,22,00,02,19.20
2015,06,22,00,03,19.20
2015,06,22,00,04,19.20
2015,06,22,00,05,19.20
2015,06,22,00,06,19.30
2015,06,22,00,07,19.30
2015,06,22,00,08,19.30
2015,06,22,00,09,19.30
2015,06,22,00,10,19.30
2015,06,22,00,11,19.30
2015,06,22,00,12,19.40
2015,06,22,00,13,19.40
2015,06,22,00,14,19.40
2015,06,22,00,15,19.40
2015,06,22,00,16,19.40
2015,06,22,00,17,19.40
2015,06,22,00,18,19.40
2015,06,22,00,19,19.40
2015,06,22,00,20,19.40
2015,06,22,00,21,19.30
2015,06,22,00,22,19.30
2015,06,22,00,23,19.30
2015,06,22,00,24,19.30
2015,06,22,00,25,19.30
2015,06,22,00,26,19.30
2015,06,22,00,27,19.20
2015,06,22,00,28,19.20
2015,06,22,00,29,19.20
2015,06,22,00,30,19.10
2015,06,22,00,31,19.10
2015,06,22,00,32,19.10
2015,06,22,00,33,19.10
2015,06,22,00,34,19.00
2015,06,22,00,35,19.00
2015,06,22,00,36,18.90
2015,06,22,00,37,18.90
2015,06,22,00,38,18.90
2015,06,22,00,39,18.90
2015,06,22,00,40,18.90
2015,06,22,00,41,18.80
2015,06,22,00,42,18.80
2015,06,22,00,43,18.80
2015,06,22,00,44,18.80
2015,06,22,00,45,18.80
2015,06,22,00,46,18.80
2015,06,22,00,47,18.80
2015,06,22,00,48,18.80
2015,06,22,00,49,18.80
2015,06,22,00,50,18.80
2015,06,22,00,51,18.80
2015,06,22,00,52,18.80
2015,06,22,00,53,18.80
2015,06,22,00,54,18.80
2015,06,22,00,55,18.70
2015,06,22,00,56,18.70
2015,06,22,00,57,18.70
2015,06,22,00,58,18.70
2015,06,22,00,59,18.70
2015,06,22,01,00,18.60
2015,06,22,01,01,18.60
2015,06,22,01,02,18.60
2015,06,22,01,03,18.60
2015,06,22,01,04,18.50
2015,06,22,01,05,18.50
2015,06,22,01,06,18.50
2015,06,22,01,07,18.40
2015,06,22,01,08,18.40
2015,06,22,01,09,18.40
2015,06,22,01,10,18.40
2015,06,22,01,11,18.40
2015,06,22,01,12,18.40
2015,06,22,01,13,18.40
2015,06,22,01,14,18.40
2015,06,22,01,15,18.40
2015,06,22,01,16,18.40
2015,06,22,01,17,18.50
2015,06,22,01,18,18.50
2015,06,22,01,19,18.50
2015,06,22,01,20,18.50
2015,06,22,01,21,18.60
2015,06,22,01,22,18.60
2015,06,22,01,23,18.60
2015,06,22,01,24,18.60
2015,06,22,01,25,18.60
2015,06,22,01,26,18.60
2015,06,22,01,27,18.60
2015,06,22,01,28,18.60
2015,06,22,01,29,18.60
2015,06,22,01,30,18.60
2015,06,22,01,31,18.60
2015,06,22,01,32,18.60
2015,06,22,01,33,18.50
2015,06,22,01,34,18.50
2015,06,22,01,35,18.50
2015,06,22,01,36,18.50
2015,06,22,01,37,18.50
2015,06,22,01,38,18.40
2015,06,22,01,39,18.40
2015,06,22,01,40,18.40
2015,06,22,01,41,18.40
2015,06,22,01,42,18.40
2015,06,22,01,43,18.40
2015,06,22,01,44,18.40
2015,06,22,01,45,18.40
2015,06,22,01,46,18.40
2015,06,22,01,47,18.30
2015,06,22,01,48,18.30
2015,06,22,01,49,18.30
2015,06,22,01,50,18.30
2015,06,22,01,51,18.30
2015,06,22,01,52,18.30
2015,06,22,01,53,18.30
2015,06,22,01,54,18.30
2015,06,22,01,55,18.30
2015,06,22,01,56,18.30
2015,06,22,01,57,18.30
2015,06,22,01,58,18.30
2015,06,22,01,59,18.30
2015,06,22,02,00,18.30
2015,06,22,02,01,18.30
2015,06,22,02,02,18.30
2015,06,22,02,03,18.30
2015,06,22,02,04,18.30
2015,06,22,02,05,18.30
2015,06,22,02,06,18.30
2015,06,22,02,07,18.20
2015,06,22,02,08,18.20
2015,06,22,02,09,18.20
2015,06,22,02,10,18.20
2015,06,22,02,11,18.20
2015,06,22,02,12,18.20
2015,06,22,02,13,18.10
2015,06,22,02,14,18.10
2015,06,22,02,15,18.10
2015,06,22,02,16,18.00
2015,06,22,02,17,18.00
2015,06,22,02,18,18.00
2015,06,22,02,19,17.90
2015,06,22,02,20,17.90
2015,06,22,02,21,17.90
2015,06,22,02,22,17.90
2015,06,22,02,23,17.90
2015,06,22,02,24,17.80
2015,06,22,02,25,17.80
2015,06,22,02,26,17.80
2015,06,22,02,27,17.80
2015,06,22,02,28,17.80
2015,06,22,02,29,17.80
2015,06,22,02,30,17.80
2015,06,22,02,31,17.80
2015,06,22,02,32,17.80
2015,06,22,02,33,17.80
2015,06,22,02,34,17.80
2015,06,22,02,35,17.80
2015,06,22,02,36,17.80
2015,06,22,02,37,17.80
2015,06,22,02,38,17.80
2015,06,22,02,39,17.80
2015,06,22,02,40,17.80
2015,06,22,02,41,17.80
2015,06,22,02,42,17.80
2015,06,22,02,43,17.80
2015,06,22,02,44,17.80
2015,06,22,02,45,17.80
2015,06,22,02,46,17.80
2015,06,22,02,47,17.80
2015,06,22,02,48,17.70
2015,06,22,02,49,17.70
2015,06,22,02,50,17.70
2015,06,22,02,51,17.70
2015,06,22,02,52,17.70
2015,06,22,02,53,17.70
2015,06,22,02,54,17.70
2015,06,22,02,55,17.70
2015,06,22,02,56,17.70
2015,06,22,02,57,17.70
2015,06,22,02,58,17.70
2015,06,22,02,59,17.70
2015,06,22,03,00,17.60
2015,06,22,03,01,17.60
2015,06,22,03,02,17.60
2015,06,22,03,03,17.60
2015,06,22,03,04,17.60
2015,06,22,03,05,17.60
2015,06,22,03,06,17.60
2015,06,22,03,07,17.60
2015,06,22,03,08,17.60
2015,06,22,03,09,17.60
2015,06,22,03,10,17.60
2015,06,22,03,11,17.60
2015,06,22,03,12,17.60
2015,06,22,03,13,17.50
2015,06,22,03,14,17.50
2015,06,22,03,15,17.50
2015,06,22,03,16,17.50
2015,06,22,03,17,17.40
2015,06,22,03,18,17.40
2015,06,22,03,19,17.40
2015,06,22,03,20,17.30
2015,06,22,03,21,17.30
2015,06,22,03,22,17.30
2015,06,22,03,23,17.20
2015,06,22,03,24,17.20
2015,06,22,03,25,17.20
2015,06,22,03,26,17.20
2015,06,22,03,27,17.10
2015,06,22,03,28,17.10
2015,06,22,03,29,17.10
2015,06,22,03,30,17.00
2015,06,22,03,31,17.00
2015,06,22,03,32,16.90
2015,06,22,03,33,16.90
2015,06,22,03,34,16.90
2015,06,22,03,35,16.90
2015,06,22,03,36,16.90
2015,06,22,03,37,16.90
2015,06,22,03,38,16.90
2015,06,22,03,39,16.80
2015,06,22,03,40,16.80
2015,06,22,03,41,16.80
2015,06,22,03,42,16.80
2015,06,22,03,43,16.80
2015,06,22,03,44,16.80
2015,06,22,03,45,16.80
2015,06,22,03,46,16.80
2015,06,22,03,47,16.80
2015,06,22,03,48,16.80
2015,06,22,03,49,16.80
2015,06,22,03,50,16.90
2015,06,22,03,51,16.90
2015,06,22,03,52,16.90
2015,06,22,03,53,16.90
2015,06,22,03,54,16.90
2015,06,22,03,55,16.90
2015,06,22,03,56,16.90
2015,06,22,03,57,16.90
2015,06,22,03,58,16.90
2015,06,22,03,59,16.90
2015,06,22,04,00,16.90
2015,06,22,04,01,16.90
2015,06,22,04,02,16.80
2015,06,22,04,03,16.80
2015,06,22,04,04,16.80
2015,06,22,04,05,16.80
2015,06,22,04,06,16.80
2015,06,22,04,07,16.80
2015,06,22,04,08,16.80
2015,06,22,04,09,16.70
2015,06,22,04,10,16.70
2015,06,22,04,11,16.70
2015,06,22,04,12,16.70
2015,06,22,04,13,16.70
2015,06,22,04,14,16.70
2015,06,22,04,15,16.70
2015,06,22,04,16,16.70
2015,06,22,04,17,16.70
2015,06,22,04,18,16.70
2015,06,22,04,19,16.60
2015,06,22,04,20,16.60
2015,06,22,04,21,16.60
2015,06,22,04,22,16.60
2015,06,22,04,23,16.60
2015,06,22,04,24,16.50
2015,06,22,04,25,16.50
2015,06,22,04,26,16.50
2015,06,22,04,27,16.50
2015,06,22,04,28,16.40
2015,06,22,04,29,16.40
2015,06,22,04,30,16.40
2015,06,22,04,31,16.40
2015,06,22,04,32,16.40
2015,06,22,04,33,16.40
2015,06,22,04,34,16.40
2015,06,22,04,35,16.40
2015,06,22,04,36,16.40
2015,06,22,04,37,16.40
2015,06,22,04,38,16.40
2015,06,22,04,39,16.40
2015,06,22,04,40,16.40
2015,06,22,04,41,16.40
2015,06,22,04,42,16.40
2015,06,22,04,43,16.40
2015,06,22,04,44,16.40
2015,06,22,04,45,16.50
2015,06,22,04,46,16.50
2015,06,22,04,47,16.50
2015,06,22,04,48,16.50
2015,06,22,04,49,16.50
2015,06,22,04,50,16.50
2015,06,22,04,51,16.50
2015,06,22,04,52,16.50
2015,06,22,04,53,16.40
2015,06,22,04,54,16.40
2015,06,22,04,55,16.40
2015,06,22,04,56,16.40
2015,06,22,04,57,16.40
2015,06,22,04,58,16.40
2015,06,22,04,59,16.30
2015,06,22,05,00,16.30
2015,06,22,05,01,16.30
2015,06,22,05,02,16.30
2015,06,22,05,03,16.30
2015,06,22,05,04,16.30
2015,06,22,05,05,16.30
2015,06,22,05,06,16.30
2015,06,22,05,07,16.20
2015,06,22,05,08,16.20
2015,06,22,05,09,16.20
2015,06,22,05,10,16.20
2015,06,22,05,11,16.20
2015,06,22,05,12,16.20
2015,06,22,05,13,16.20
2015,06,22,05,14,16.20
2015,06,22,05,15,16.10
2015,06,22,05,16,16.10
2015,06,22,05,17,16.10
2015,06,22,05,18,16.10
2015,06,22,05,19,16.00
2015,06,22,05,20,16.00
2015,06,22,05,21,16.00
2015,06,22,05,22,15.90
2015,06,22,05,23,15.90
2015,06,22,05,24,15.90
2015,06,22,05,25,15.90
2015,06,22,05,26,15.80
2015,06,22,05,27,15.80
2015,06,22,05,28,15.80
2015,06,22,05,29,15.80
2015,06,22,05,30,15.80
2015,06,22,05,31,15.70
2015,06,22,05,32,15.70
2015,06,22,05,33,15.70
2015,06,22,05,34,15.70
2015,06,22,05,35,15.70
2015,06,22,05,36,15.60
2015,06,22,05,37,15.60
2015,06,22,05,38,15.60
2015,06,22,05,39,15.60
2015,06,22,05,40,15.50
2015,06,22,05,41,15.50
2015,06,22,05,42,15.50
2015,06,22,05,43,15.50
2015,06,22,05,44,15.50
2015,06,22,05,45,15.40
2015,06,22,05,46,15.40
2015,06,22,05,47,15.40
2015,06,22,05,48,15.40
2015,06,22,05,49,15.40
2015,06,22,05,50,15.40
2015,06,22,05,51,15.40
2015,06,22,05,52,15.40
2015,06,22,05,53,15.40
2015,06,22,05,54,15.40
2015,06,22,05,55,15.40
2015,06,22,05,56,15.40
2015,06,22,05,57,15.40
2015,06,22,05,58,15.40
2015,06,22,05,59,15.40
2015,06,22,06,00,15.40
2015,06,22,06,01,15.40
2015,06,22,06,02,15.40
2015,06,22,06,03,15.40
2015,06,22,06,04,15.40
2015,06,22,06,05,15.40
2015,06,22,06,06,15.40
2015,06,22,06,07,15.50
2015,06,22,06,08,15.50
2015,06,22,06,09,15.50
2015,06,22,06,10,15.50
2015,06,22,06,11,15.50
2015,06,22,06,12,15.50
2015,06,22,06,13,15.50
2015,06,22,06,14,15.50
2015,06,22,06,15,15.50
2015,06,22,06,16,15.50
2015,06,22,06,17,15.50
2015,06,22,06,18,15.50
2015,06,22,06,19,15.60
2015,06,22,06,20,15.60
2015,06,22,06,21,15.60
2015,06,22,06,22,15.50
2015,06,22,06,23,15.50
2015,06,22,06,24,15.50
2015,06,22,06,25,15.50
2015,06,22,06,26,15.50
2015,06,22,06,27,15.40
2015,06,22,06,28,15.40
2015,06,22,06,29,15.40
2015,06,22,06,30,15.40
2015,06,22,06,31,15.40
2015,06,22,06,32,15.40
2015,06,22,06,33,15.40
2015,06,22,06,34,15.40
2015,06,22,06,35,15.40
2015,06,22,06,36,15.40
2015,06,22,06,37,15.40
2015,06,22,06,38,15.40
2015,06,22,06,39,15.50
2015,06,22,06,40,15.50
2015,06,22,06,41,15.50
2015,06,22,06,42,15.50
2015,06,22,06,43,15.50
2015,06,22,06,44,15.50
2015,06,22,06,45,15.50
2015,06,22,06,46,15.50
2015,06,22,06,47,15.50
2015,06,22,06,48,15.60
2015,06,22,06,49,15.60
2015,06,22,06,50,15.60
2015,06,22,06,51,15.60
2015,06,22,06,52,15.60
2015,06,22,06,53,15.60
2015,06,22,06,54,15.60
2015,06,22,06,55,15.60
2015,06,22,06,56,15.60
2015,06,22,06,57,15.60
2015,06,22,06,58,15.60
2015,06,22,06,59,15.70
2015,06,22,07,00,15.70
2015,06,22,07,01,15.70
2015,06,22,07,02,15.70
2015,06,22,07,03,15.70
2015,06,22,07,04,15.70
2015,06,22,07,05,15.80
2015,06,22,07,06,15.80
2015,06,22,07,07,15.80
2015,06,22,07,08,15.80
2015,06,22,07,09,15.80
2015,06,22,07,10,15.80
2015,06,22,07,11,15.80
2015,06,22,07,12,15.90
2015,06,22,07,13,15.90
2015,06,22,07,14,15.90
2015,06,22,07,15,15.90
2015,06,22,07,16,15.90
2015,06,22,07,17,15.90
2015,06,22,07,18,16.00
2015,06,22,07,19,16.00
2015,06,22,07,20,16.00
2015,06,22,07,21,16.00
2015,06,22,07,22,16.10
2015,06,22,07,23,16.10
2015,06,22,07,24,16.10
2015,06,22,07,25,16.10
2015,06,22,07,26,16.10
2015,06,22,07,27,16.10
2015,06,22,07,28,16.20
2015,06,22,07,29,16.20
2015,06,22,07,30,16.20
2015,06,22,07,31,16.20
2015,06,22,07,32,16.20
2015,06,22,07,33,16.20
2015,06,22,07,34,16.20
2015,06,22,07,35,16.20
2015,06,22,07,36,16.20
2015,06,22,07,37,16.20
2015,06,22,07,38,16.20
2015,06,22,07,39,16.20
2015,06,22,07,40,16.20
2015,06,22,07,41,16.20
2015,06,22,07,42,16.20
2015,06,22,07,43,16.20
2015,06,22,07,44,16.20
2015,06,22,07,45,16.20
2015,06,22,07,46,16.20
2015,06,22,07,47,16.20
2015,06,22,07,48,16.20
2015,06,22,07,49,16.20
2015,06,22,07,50,16.20
2015,06,22,07,51,16.20
2015,06,22,07,52,16.30
2015,06,22,07,53,16.30
2015,06,22,07,54,16.30
2015,06,22,07,55,16.30
2015,06,22,07,56,16.30
2015,06,22,07,57,16.40
2015,06,22,07,58,16.40
2015,06,22,07,59,16.40
2015,06,22,08,00,16.40
2015,06,22,08,01,16.50
2015,06,22,08,02,16.50
2015,06,22,08,03,16.50
2015,06,22,08,04,16.60
2015,06,22,08,05,16.60
2015,06,22,08,06,16.60
2015,06,22,08,07,16.60
2015,06,22,08,08,16.70
2015,06,22,08,09,16.70
2015,06,22,08,10,16.80
2015,06,22,08,11,16.80
2015,06,22,08,12,16.90
2015,06,22,08,13,16.90
2015,06,22,08,14,17.00
2015,06,22,08,15,17.00
2015,06,22,08,16,17.10
2015,06,22,08,17,17.10
2015,06,22,08,18,17.10
2015,06,22,08,19,17.20
2015,06,22,08,20,17.20
2015,06,22,08,21,17.30
2015,06,22,08,22,17.30
2015,06,22,08,23,17.40
2015,06,22,08,24,17.40
2015,06,22,08,25,17.40
2015,06,22,08,26,17.50
2015,06,22,08,27,17.50
2015,06,22,08,28,17.50
2015,06,22,08,29,17.60
2015,06,22,08,30,17.60
2015,06,22,08,31,17.60
2015,06,22,08,32,17.60
2015,06,22,08,33,17.70
2015,06,22,08,34,17.70
2015,06,22,08,35,17.80
2015,06,22,08,36,17.80
2015,06,22,08,37,17.80
2015,06,22,08,38,17.90
2015,06,22,08,39,17.90
2015,06,22,08,40,17.90
2015,06,22,08,41,18.00
2015,06,22,08,42,18.00
2015,06,22,08,43,18.00
2015,06,22,08,44,18.00
2015,06,22,08,45,18.10
2015,06,22,08,46,18.10
2015,06,22,08,47,18.20
2015,06,22,08,48,18.20
2015,06,22,08,49,18.20
2015,06,22,08,50,18.30
2015,06,22,08,51,18.30
2015,06,22,08,52,18.30
2015,06,22,08,53,18.30
2015,06,22,08,54,18.30
2015,06,22,08,55,18.30
2015,06,22,08,56,18.40
2015,06,22,08,57,18.40
2015,06,22,08,58,18.50
2015,06,22,08,59,18.50
2015,06,22,09,00,18.50
2015,06,22,09,01,18.40
2015,06,22,09,02,18.30
2015,06,22,09,03,18.30
2015,06,22,09,04,18.30
2015,06,22,09,05,18.30
2015,06,22,09,06,18.20
2015,06,22,09,07,18.20
2015,06,22,09,08,18.20
2015,06,22,09,09,18.20
2015,06,22,09,10,18.20
2015,06,22,09,11,18.20
2015,06,22,09,12,18.20
2015,06,22,09,13,18.20
2015,06,22,09,14,18.20
2015,06,22,09,15,18.20
2015,06,22,09,16,18.20
2015,06,22,09,17,18.20
2015,06,22,09,18,18.20
2015,06,22,09,19,18.30
2015,06,22,09,20,18.30
2015,06,22,09,21,18.30
2015,06,22,09,22,18.40
2015,06,22,09,23,18.40
2015,06,22,09,24,18.50
2015,06,22,09,25,18.60
2015,06,22,09,26,18.60
2015,06,22,09,27,18.70
2015,06,22,09,28,18.70
2015,06,22,09,29,18.80
2015,06,22,09,30,18.80
2015,06,22,09,31,18.90
2015,06,22,09,32,19.00
2015,06,22,09,33,19.00
2015,06,22,09,34,19.10
2015,06,22,09,35,19.10
2015,06,22,09,36,19.10
2015,06,22,09,37,19.10
2015,06,22,09,38,19.10
2015,06,22,09,39,19.10
2015,06,22,09,40,19.20
2015,06,22,09,41,19.20
2015,06,22,09,42,19.20
2015,06,22,09,43,19.20
2015,06,22,09,44,19.20
2015,06,22,09,45,19.30
2015,06,22,09,46,19.30
2015,06,22,09,47,19.30
2015,06,22,09,48,19.30
2015,06,22,09,49,19.40
2015,06,22,09,50,19.40
2015,06,22,09,51,19.40
2015,06,22,09,52,19.40
2015,06,22,09,53,19.40
2015,06,22,09,54,19.40
2015,06,22,09,55,19.40
2015,06,22,09,56,19.40
2015,06,22,09,57,19.40
2015,06,22,09,58,19.50
2015,06,22,09,59,19.50
2015,06,22,10,00,19.50
2015,06,22,10,01,19.50
2015,06,22,10,02,19.60
2015,06,22,10,03,19.60
2015,06,22,10,04,19.60
2015,06,22,10,05,19.60
2015,06,22,10,06,19.60
2015,06,22,10,07,19.60
2015,06,22,10,08,19.70
2015,06,22,10,09,19.70
2015,06,22,10,10,19.70
2015,06,22,10,11,19.70
2015,06,22,10,12,19.80
2015,06,22,10,13,19.80
2015,06,22,10,14,19.70
2015,06,22,10,15,19.70
2015,06,22,10,16,19.70
2015,06,22,10,17,19.70
2015,06,22,10,18,19.70
2015,06,22,10,19,19.70
2015,06,22,10,20,19.70
2015,06,22,10,21,19.80
2015,06,22,10,22,19.80
2015,06,22,10,23,19.90
2015,06,22,10,24,19.90
2015,06,22,10,25,19.90
2015,06,22,10,26,20.00
2015,06,22,10,27,20.10
2015,06,22,10,28,20.20
2015,06,22,10,29,20.30
2015,06,22,10,30,20.40
2015,06,22,10,31,20.40
2015,06,22,10,32,20.40
2015,06,22,10,33,20.50
2015,06,22,10,34,20.50
2015,06,22,10,35,20.50
2015,06,22,10,36,20.50
2015,06,22,10,37,20.50
2015,06,22,10,38,20.50
2015,06,22,10,39,20.50
2015,06,22,10,40,20.40
2015,06,22,10,41,20.40
2015,06,22,10,42,20.30
2015,06,22,10,43,20.30
2015,06,22,10,44,20.30
2015,06,22,10,45,20.30
2015,06,22,10,46,20.30
2015,06,22,10,47,20.20
2015,06,22,10,48,20.20
2015,06,22,10,49,20.20
2015,06,22,10,50,20.10
2015,06,22,10,51,20.00
2015,06,22,10,52,19.90
2015,06,22,10,53,19.90
2015,06,22,10,54,19.90
2015,06,22,10,55,19.90
2015,06,22,10,56,19.90
2015,06,22,10,57,19.90
2015,06,22,10,58,19.90
2015,06,22,10,59,19.90
2015,06,22,11,00,19.90
2015,06,22,11,01,19.90
2015,06,22,11,02,20.00
2015,06,22,11,03,20.00
2015,06,22,11,04,20.10
2015,06,22,11,05,20.10
2015,06,22,11,06,20.20
2015,06,22,11,07,20.20
2015,06,22,11,08,20.10
2015,06,22,11,09,20.10
2015,06,22,11,10,20.10
2015,06,22,11,11,20.10
2015,06,22,11,12,20.20
2015,06,22,11,13,20.20
2015,06,22,11,14,20.30
2015,06,22,11,15,20.40
2015,06,22,11,16,20.40
2015,06,22,11,17,20.40
2015,06,22,11,18,20.40
2015,06,22,11,19,20.40
2015,06,22,11,20,20.40
2015,06,22,11,21,20.40
2015,06,22,11,22,20.40
2015,06,22,11,23,20.40
2015,06,22,11,24,20.40
2015,06,22,11,25,20.30
2015,06,22,11,26,20.30
2015,06,22,11,27,20.20
2015,06,22,11,28,20.20
2015,06,22,11,29,20.30
2015,06,22,11,30,20.30
2015,06,22,11,31,20.30
2015,06,22,11,32,20.30
2015,06,22,11,33,20.30
2015,06,22,11,34,20.30
2015,06,22,11,35,20.30
2015,06,22,11,36,20.20
2015,06,22,11,37,20.20
2015,06,22,11,38,20.20
2015,06,22,11,39,20.20
2015,06,22,11,40,20.10
2015,06,22,11,41,20.20
2015,06,22,11,42,20.20
2015,06,22,11,43,20.20
2015,06,22,11,44,20.30
2015,06,22,11,45,20.40
2015,06,22,11,46,20.40
2015,06,22,11,47,20.40
2015,06,22,11,48,20.40
2015,06,22,11,49,20.40
2015,06,22,11,50,20.40
2015,06,22,11,51,20.40
2015,06,22,11,52,20.50
2015,06,22,11,53,20.50
2015,06,22,11,54,20.50
2015,06,22,11,55,20.50
2015,06,22,11,56,20.40
2015,06,22,11,57,20.40
2015,06,22,11,58,20.40
2015,06,22,11,59,20.40
2015,06,22,12,00,20.30
2015,06,22,12,01,20.20
2015,06,22,12,02,20.10
2015,06,22,12,03,20.00
2015,06,22,12,04,19.90
2015,06,22,12,05,19.90
2015,06,22,12,06,19.90
2015,06,22,12,07,19.90
2015,06,22,12,08,19.80
2015,06,22,12,09,19.80
2015,06,22,12,10,19.70
2015,06,22,12,11,19.70
2015,06,22,12,12,19.70
2015,06,22,12,13,19.60
2015,06,22,12,14,19.60
2015,06,22,12,15,19.60
2015,06,22,12,16,19.60
2015,06,22,12,17,19.60
2015,06,22,12,18,19.60
2015,06,22,12,19,19.60
2015,06,22,12,20,19.60
2015,06,22,12,21,19.60
2015,06,22,12,22,19.60
2015,06,22,12,23,19.60
2015,06,22,12,24,19.60
2015,06,22,12,25,19.60
2015,06,22,12,26,19.70
2015,06,22,12,27,19.70
2015,06,22,12,28,19.80
2015,06,22,12,29,19.80
2015,06,22,12,30,19.80
2015,06,22,12,31,19.90
2015,06,22,12,32,20.00
2015,06,22,12,33,20.10
2015,06,22,12,34,20.20
2015,06,22,12,35,20.20
2015,06,22,12,36,20.20
2015,06,22,12,37,20.30
2015,06,22,12,38,20.30
2015,06,22,12,39,20.40
2015,06,22,12,40,20.50
2015,06,22,12,41,20.50
2015,06,22,12,42,20.50
2015,06,22,12,43,20.60
2015,06,22,12,44,20.60
2015,06,22,12,45,20.60
2015,06,22,12,46,20.60
2015,06,22,12,47,20.70
2015,06,22,12,48,20.70
2015,06,22,12,49,20.70
2015,06,22,12,50,20.80
2015,06,22,12,51,20.80
2015,06,22,12,52,20.90
2015,06,22,12,53,20.90
2015,06,22,12,54,21.00
2015,06,22,12,55,21.00
2015,06,22,12,56,21.10
2015,06,22,12,57,21.10
2015,06,22,12,58,21.20
2015,06,22,12,59,21.20
2015,06,22,13,00,21.10
2015,06,22,13,01,21.00
2015,06,22,13,02,20.90
2015,06,22,13,03,20.90
2015,06,22,13,04,20.80
2015,06,22,13,05,20.70
2015,06,22,13,06,20.70
2015,06,22,13,07,20.60
2015,06,22,13,08,20.60
2015,06,22,13,09,20.60
2015,06,22,13,10,20.50
2015,06,22,13,11,20.50
2015,06,22,13,12,20.50
2015,06,22,13,13,20.60
2015,06,22,13,14,20.60
2015,06,22,13,15,20.60
2015,06,22,13,16,20.60
2015,06,22,13,17,20.70
2015,06,22,13,18,20.70
2015,06,22,13,19,20.70
2015,06,22,13,20,20.80
2015,06,22,13,21,20.80
2015,06,22,13,22,20.80
2015,06,22,13,23,20.90
2015,06,22,13,24,20.90
2015,06,22,13,25,20.90
2015,06,22,13,26,20.90
2015,06,22,13,27,20.90
2015,06,22,13,28,20.90
2015,06,22,13,29,20.90
2015,06,22,13,30,20.80
2015,06,22,13,31,20.80
2015,06,22,13,32,20.80
2015,06,22,13,33,20.80
2015,06,22,13,34,20.80
2015,06,22,13,35,20.80
2015,06,22,13,36,20.80
2015,06,22,13,37,20.80
2015,06,22,13,38,20.80
2015,06,22,13,39,20.80
2015,06,22,13,40,20.80
2015,06,22,13,41,20.80
2015,06,22,13,42,20.70
2015,06,22,13,43,20.70
2015,06,22,13,44,20.60
2015,06,22,13,45,20.50
2015,06,22,13,46,20.40
2015,06,22,13,47,20.40
2015,06,22,13,48,20.30
2015,06,22,13,49,20.40
2015,06,22,13,50,20.40
2015,06,22,13,51,20.50
2015,06,22,13,52,20.50
2015,06,22,13,53,20.60
2015,06,22,13,54,20.70
2015,06,22,13,55,20.80
2015,06,22,13,56,20.80
2015,06,22,13,57,20.80
2015,06,22,13,58,20.90
2015,06,22,13,59,20.90
2015,06,22,14,00,20.90
2015,06,22,14,01,20.80
2015,06,22,14,02,20.80
2015,06,22,14,03,20.90
2015,06,22,14,04,20.90
2015,06,22,14,05,21.00
2015,06,22,14,06,21.10
2015,06,22,14,07,21.10
2015,06,22,14,08,21.10
2015,06,22,14,09,21.10
2015,06,22,14,10,21.10
2015,06,22,14,11,21.20
2015,06,22,14,12,21.10
2015,06,22,14,13,21.10
2015,06,22,14,14,21.10
2015,06,22,14,15,21.10
2015,06,22,14,16,21.10
2015,06,22,14,17,21.10
2015,06,22,14,18,21.10
2015,06,22,14,19,21.10
2015,06,22,14,20,21.10
2015,06,22,14,21,21.10
2015,06,22,14,22,21.10
2015,06,22,14,23,21.10
2015,06,22,14,24,21.20
2015,06,22,14,25,21.20
2015,06,22,14,26,21.30
2015,06,22,14,27,21.40
2015,06,22,14,28,21.40
2015,06,22,14,29,21.40
2015,06,22,14,30,21.40
2015,06,22,14,31,21.40
2015,06,22,14,32,21.40
2015,06,22,14,33,21.40
2015,06,22,14,34,21.40
2015,06,22,14,35,21.30
2015,06,22,14,36,21.20
2015,06,22,14,37,21.20
2015,06,22,14,38,21.20
2015,06,22,14,39,21.20
2015,06,22,14,40,21.20
2015,06,22,14,41,21.20
2015,06,22,14,42,21.20
2015,06,22,14,43,21.30
2015,06,22,14,44,21.30
2015,06,22,14,45,21.30
2015,06,22,14,46,21.40
2015,06,22,14,47,21.50
2015,06,22,14,48,21.50
2015,06,22,14,49,21.60
2015,06,22,14,50,21.60
2015,06,22,14,51,21.60
2015,06,22,14,52,21.60
2015,06,22,14,53,21.60
2015,06,22,14,54,21.60
2015,06,22,14,55,21.60
2015,06,22,14,56,21.60
2015,06,22,14,57,21.60
2015,06,22,14,58,21.60
2015,06,22,14,59,21.70
2015,06,22,15,00,21.70
2015,06,22,15,01,21.60
2015,06,22,15,02,21.60
2015,06,22,15,03,21.70
2015,06,22,15,04,21.70
2015,06,22,15,05,21.60
2015,06,22,15,06,21.60
2015,06,22,15,07,21.60
2015,06,22,15,08,21.60
2015,06,22,15,09,21.60
2015,06,22,15,10,21.60
2015,06,22,15,11,21.60
2015,06,22,15,12,21.60
2015,06,22,15,13,21.50
2015,06,22,15,14,21.50
2015,06,22,15,15,21.40
2015,06,22,15,16,21.40
2015,06,22,15,17,21.30
2015,06,22,15,18,21.30
2015,06,22,15,19,21.30
2015,06,22,15,20,21.30
2015,06,22,15,21,21.30
2015,06,22,15,22,21.30
2015,06,22,15,23,21.30
2015,06,22,15,24,21.30
2015,06,22,15,25,21.30
2015,06,22,15,26,21.30
2015,06,22,15,27,21.40
2015,06,22,15,28,21.50
2015,06,22,15,29,21.50
2015,06,22,15,30,21.60
2015,06,22,15,31,21.60
2015,06,22,15,32,21.60
2015,06,22,15,33,21.70
2015,06,22,15,34,21.70
2015,06,22,15,35,21.70
2015,06,22,15,36,21.70
2015,06,22,15,37,21.80
2015,06,22,15,38,21.80
2015,06,22,15,39,21.80
2015,06,22,15,40,21.80
2015,06,22,15,41,21.80
2015,06,22,15,42,21.70
2015,06,22,15,43,21.70
2015,06,22,15,44,21.60
2015,06,22,15,45,21.60
2015,06,22,15,46,21.50
2015,06,22,15,47,21.40
2015,06,22,15,48,21.40
2015,06,22,15,49,21.40
2015,06,22,15,50,21.30
2015,06,22,15,51,21.30
2015,06,22,15,52,21.20
2015,06,22,15,53,21.20
2015,06,22,15,54,21.20
2015,06,22,15,55,21.20
2015,06,22,15,56,21.20
2015,06,22,15,57,21.30
2015,06,22,15,58,21.30
2015,06,22,15,59,21.40
2015,06,22,16,00,21.40
2015,06,22,16,01,21.40
2015,06,22,16,02,21.50
2015,06,22,16,03,21.60
2015,06,22,16,04,21.60
2015,06,22,16,05,21.70
2015,06,22,16,06,21.80
2015,06,22,16,07,21.80
2015,06,22,16,08,21.90
2015,06,22,16,09,22.00
2015,06,22,16,10,22.10
2015,06,22,16,11,22.20
2015,06,22,16,12,22.30
2015,06,22,16,13,22.30
2015,06,22,16,14,22.30
2015,06,22,16,15,22.30
2015,06,22,16,16,22.30
2015,06,22,16,17,22.30
2015,06,22,16,18,22.40
2015,06,22,16,19,22.40
2015,06,22,16,20,22.40
2015,06,22,16,21,22.40
2015,06,22,16,22,22.40
2015,06,22,16,23,22.40
2015,06,22,16,24,22.40
2015,06,22,16,25,22.40
2015,06,22,16,26,22.40
2015,06,22,16,27,22.50
2015,06,22,16,28,22.60
2015,06,22,16,29,22.70
2015,06,22,16,30,22.70
2015,06,22,16,31,22.80
2015,06,22,16,32,22.80
2015,06,22,16,33,22.80
2015,06,22,16,34,22.80
2015,06,22,16,35,22.80
2015,06,22,16,36,22.80
2015,06,22,16,37,22.80
2015,06,22,16,38,22.80
2015,06,22,16,39,22.80
2015,06,22,16,40,22.80
2015,06,22,16,41,22.80
2015,06,22,16,42,22.80
2015,06,22,16,43,22.90
2015,06,22,16,44,22.90
2015,06,22,16,45,23.00
2015,06,22,16,46,23.10
2015,06,22,16,47,23.20
2015,06,22,16,48,23.20
2015,06,22,16,49,23.30
2015,06,22,16,50,23.30
2015,06,22,16,51,23.40
2015,06,22,16,52,23.50
2015,06,22,16,53,23.60
2015,06,22,16,54,23.60
2015,06,22,16,55,23.70
2015,06,22,16,56,23.70
2015,06,22,16,57,23.70
2015,06,22,16,58,23.70
2015,06,22,16,59,23.70
2015,06,22,17,00,23.70
2015,06,22,17,01,23.70
2015,06,22,17,02,23.70
2015,06,22,17,03,23.70
2015,06,22,17,04,23.80
2015,06,22,17,05,23.80
2015,06,22,17,06,23.80
2015,06,22,17,07,23.80
2015,06,22,17,08,23.90
2015,06,22,17,09,23.90
2015,06,22,17,10,23.90
2015,06,22,17,11,23.90
2015,06,22,17,12,23.90
2015,06,22,17,13,23.90
2015,06,22,17,14,24.00
2015,06,22,17,15,23.90
2015,06,22,17,16,23.90
2015,06,22,17,17,23.80
2015,06,22,17,18,23.80
2015,06,22,17,19,23.80